User: anonymous   Login
Location: Estes Par
(40.3770°N, 105.5210°W)
Time: 23:56:37
(UTC-06:00)
Language:

XW-2D - Orbit

View from above orbital plane
View from above orbital plane
View from above satellite
View from above satellite

Ground track
Ground track

The orbit data is extracted from the following two-line orbital elements,

1 40907U 15049J   18290.84418003  .00000689  00000-0  39810-4 0  9995
2 40907  97.4608 291.8071 0013499 328.5242 152.3201 15.15519032170077
Epoch (UTC): 17 October 2018 20:15:37
Eccentricity: 0.0013499
inclination: 97.4608°
perigee height: 510 km
apogee height: 529 km
right ascension of ascending node: 291.8071°
argument of perigee: 328.5242°
revolutions per day: 15.15519032
mean anomaly at epoch: 152.3201°
orbit number at epoch: 17007

The dashed part of the orbit path shows where the satellite is in the earth's shadow,  

DLR